(14) Irene
ephemeris date magn radius delta ra dec elong phase
Today19 Apr 202511.32.289 AU2.280 AU07h15m+28°59'77.8°25.4°
Opposition14 Jun 20269.42.447 AU1.431 AU17h34m-22°40'178.8°0.5°
(14) Irene - 2025-04-19
astro.vanbuitenen.nl


 
-1 year
-1 month
-1 day
Now
+1 day
+1 month
+1 year

The interactive orbit chart above shows the body's path through the solar system and its position at the given date. Green and blue lines are shown perpendicular to the ecliptic plane: Green if the path is above the ecliptic plane, blue if it is below. (Left-click and drag to rotate the view; Right-click and drag to move the view; Use scroll wheel to zoom in our out.)

The orbital elements of Irene are:

            e (Eccentricity)                : 0.1627056
            a (Semimajor axis)              : 2.5880494
            i (Inclination)                 : 9.12960
            Ω (Longitude of ascending node) : 86.01070
            ω (Argument of perihelion)      : 98.22479
            M (Mean anomaly)                : 325.60832
            Epoch                           : 2025 May 05

            L (Longitude of perihelion)     : 4.33955
            B (Latitude of perihelion)      : 9.03491
            P (Orbital period in years)     : 4.16            
        

The light curve chart below shows the estimated development of the minor planet's magnitude.


The all-sky chart below shows the path of the minor planet over the same period as the light curve. The current position is marked yellow.





The following chart shows the path of the minor planet in the next few days. The field of view is optimized for (~10x50) binoculars and finderscopes. A more printer-friendly version of the same chart can be found below.




Ephemerides:
Date       Time       RA (2000)    DEC (2000)    delta   radius  elong  phase   PA    magn
2025-04-19 00:00 UT   07 15 30.5   +28 59 31     2.280    2.289   77.8   25.4    96   11.3 
2025-04-19 21:25 UT   07 16 52.6   +28 57 05     2.289    2.288   77.2   25.4    96   11.3 
2025-04-20 00:00 UT   07 17 02.6   +28 56 47     2.290    2.288   77.2   25.4    96   11.3 
2025-04-21 00:00 UT   07 18 35.5   +28 53 58     2.301    2.286   76.5   25.3    96   11.3 
2025-04-22 00:00 UT   07 20 09.2   +28 51 03     2.311    2.285   75.9   25.3    96   11.3 
2025-04-23 00:00 UT   07 21 43.8   +28 48 04     2.321    2.283   75.3   25.2    96   11.3 
2025-04-24 00:00 UT   07 23 19.2   +28 44 60     2.331    2.282   74.7   25.2    96   11.3 
2025-04-25 00:00 UT   07 24 55.5   +28 41 50     2.342    2.281   74.1   25.1    96   11.3 
2025-04-26 00:00 UT   07 26 32.5   +28 38 35     2.352    2.279   73.5   25.0    97   11.3 
2025-04-27 00:00 UT   07 28 10.2   +28 35 15     2.362    2.278   72.9   25.0    97   11.3 
2025-04-28 00:00 UT   07 29 48.8   +28 31 50     2.372    2.277   72.3   24.9    97   11.4 
2025-04-29 00:00 UT   07 31 28.0   +28 28 19     2.382    2.275   71.7   24.8    97   11.4 
2025-04-30 00:00 UT   07 33 08.0   +28 24 43     2.392    2.274   71.1   24.8    97   11.4 
2025-05-01 00:00 UT   07 34 48.7   +28 21 02     2.402    2.273   70.5   24.7    97   11.4 
2025-05-02 00:00 UT   07 36 30.0   +28 17 15     2.412    2.271   69.9   24.6    97   11.4 
2025-05-03 00:00 UT   07 38 12.0   +28 13 23     2.421    2.270   69.3   24.5    97   11.4 
2025-05-04 00:00 UT   07 39 54.6   +28 09 26     2.431    2.269   68.7   24.5    97   11.4 
2025-05-05 00:00 UT   07 41 37.9   +28 05 22     2.441    2.268   68.1   24.4    97   11.4 
2025-05-06 00:00 UT   07 43 21.7   +28 01 14     2.451    2.266   67.6   24.3    97   11.4 
2025-05-07 00:00 UT   07 45 06.2   +27 56 60     2.460    2.265   67.0   24.2    97   11.4 
2025-05-08 00:00 UT   07 46 51.2   +27 52 40     2.470    2.264   66.4   24.1    97   11.4 
2025-05-09 00:00 UT   07 48 36.8   +27 48 15     2.479    2.262   65.9   24.0    98   11.4 
2025-05-10 00:00 UT   07 50 22.9   +27 43 44     2.489    2.261   65.3   23.9    98   11.4 
2025-05-11 00:00 UT   07 52 09.5   +27 39 07     2.498    2.260   64.7   23.8    98   11.4 


    Terminology:
            
    delta:  distance between minor planet and earth in AU
    radius: distance between minor planet and sun in AU
    magn:   magnitude (brightness) estimate    
    ra:     right ascension in hours (24h = 360deg)
    dec:    declination in degrees
    elong:  elongation in degrees (angle sun-earth-minor planet)    
    phase:  phase angle in degrees (angle sun-minor planet-earth)        
    AU:     Astronomical Unit (mean distance between earth and sun: 149597870.7 km
    

Orbital elements provided by the MPC (Minor Planet Center).
Calculations by a modified version of AAPlus, a C# implementation of the AA+ project by PJ Naughter from the algorithms presented in the book "Astronomical Algorithms" by Jean Meeus.
NGC2000 dso catalog and star labels from VizieR as provided by the Strasbourg astronomical Data Center.
Tycho2 catalog from the ESO archive.